WZZ62BG EPKT-LPMA

Flight info

Callsign WZZ62BG
Flight time 4h 49m
Altitude 34000
Route ADADO DCT UTEVO DCT BALTU DCT OKG DCT ABERU L984 LONLI DCT KOMIB DCT LOHRE DCT RUDUS DCT OBIGA DCT IDOSA DCT TOLVU/N0444F330 DCT RAPOR DCT ESTOC UT300 PON UN872 ERIGA UN741 AZFIC/N0451F350 DCT LOTEE DCT AGADO DCT ASMAR DCT LIDRO
Aircraft A321/M-SDE3FGHIRWY/LB1

Departure

Time 2026-05-01 08:17
Airport Katowice Wojciech Korfanty International Airport (EPKT)

Arrival

Time 2026-05-01 13:07
Airport Cristiano Ronaldo International Airport (LPMA)
Time Latitude Longitude Altitude Speed Heading
2026-05-01 07:39 50.47149 19.06965 1009 ft 0 kts 180°
2026-05-01 08:03 50.47169 19.06965 1009 ft 3 kts 180°
2026-05-01 08:04 50.47210 19.06964 1009 ft 3 kts 170°
2026-05-01 08:04 50.47236 19.06940 1009 ft 2 kts 90°
2026-05-01 08:07 50.47236 19.06945 1008 ft 1 kts 90°
2026-05-01 08:08 50.47236 19.06968 1008 ft 4 kts 90°
2026-05-01 08:08 50.47239 19.07207 1008 ft 13 kts 88°
2026-05-01 08:09 50.47240 19.07404 1008 ft 9 kts 78°
2026-05-01 08:09 50.47286 19.07456 1008 ft 8 kts
2026-05-01 08:09 50.47343 19.07457 1008 ft 9 kts
2026-05-01 08:10 50.47427 19.07547 1008 ft 7 kts 89°
2026-05-01 08:10 50.47427 19.07791 1008 ft 18 kts 90°
2026-05-01 08:11 50.47426 19.08167 1008 ft 16 kts 90°
2026-05-01 08:11 50.47426 19.08525 1008 ft 16 kts 90°
2026-05-01 08:12 50.47425 19.08876 1008 ft 15 kts 90°
2026-05-01 08:12 50.47424 19.09042 1008 ft 15 kts 90°
2026-05-01 08:12 50.47410 19.09369 1008 ft 14 kts 123°
2026-05-01 08:13 50.47326 19.09412 1008 ft 13 kts 180°
2026-05-01 08:13 50.47249 19.09432 1008 ft 10 kts 125°
2026-05-01 08:13 50.47233 19.09648 1008 ft 10 kts 90°
2026-05-01 08:14 50.47233 19.09769 1008 ft 13 kts 90°
2026-05-01 08:14 50.47232 19.09925 1008 ft 14 kts 90°
2026-05-01 08:14 50.47251 19.10066 1008 ft 13 kts 54°
2026-05-01 08:14 50.47304 19.10174 1008 ft 12 kts 51°
2026-05-01 08:15 50.47353 19.10271 1008 ft 11 kts 51°
2026-05-01 08:15 50.47444 19.10443 1008 ft 9 kts 39°
2026-05-01 08:15 50.47501 19.10470 1008 ft 8 kts
2026-05-01 08:16 50.47537 19.10471 1008 ft 8 kts
2026-05-01 08:16 50.47585 19.10464 1008 ft 6 kts 332°
2026-05-01 08:16 50.47598 19.10413 1008 ft 5 kts 269°
2026-05-01 08:16 50.47599 19.10158 1008 ft 53 kts 272°
2026-05-01 08:17 50.47601 19.09208 1009 ft 117 kts 271°
2026-05-01 08:17 50.47600 19.08226 1009 ft 154 kts 270°
2026-05-01 08:17 50.47612 19.06323 1143 ft 184 kts 271°
2026-05-01 08:17 50.47590 19.04391 1928 ft 173 kts 269°
2026-05-01 08:18 50.47560 19.02517 2477 ft 172 kts 270°
2026-05-01 08:18 50.47594 18.98708 3320 ft 177 kts 272°
2026-05-01 08:19 50.47614 18.94802 4086 ft 187 kts 272°
2026-05-01 08:19 50.47610 18.92676 4311 ft 202 kts 270°
2026-05-01 08:19 50.47580 18.90393 4596 ft 216 kts 271°
2026-05-01 08:19 50.47551 18.87945 4799 ft 234 kts 272°
2026-05-01 08:20 50.47521 18.85293 5049 ft 252 kts 272°
2026-05-01 08:20 50.47481 18.82461 5380 ft 266 kts 271°
2026-05-01 08:20 50.47438 18.79513 5895 ft 272 kts 272°
2026-05-01 08:20 50.47399 18.76528 6500 ft 275 kts 272°
2026-05-01 08:21 50.47360 18.73510 7096 ft 278 kts 271°
2026-05-01 08:21 50.47317 18.70459 7678 ft 281 kts 272°
2026-05-01 08:21 50.47274 18.67363 8224 ft 286 kts 272°
2026-05-01 08:21 50.47227 18.64229 8780 ft 289 kts 272°
2026-05-01 08:22 50.47175 18.61061 9332 ft 292 kts 270°
2026-05-01 08:22 50.46742 18.57915 9835 ft 301 kts 246°
2026-05-01 08:22 50.45448 18.55323 10344 ft 307 kts 217°
2026-05-01 08:22 50.43565 18.53744 10857 ft 309 kts 202°
2026-05-01 08:23 50.41655 18.52123 11201 ft 319 kts 221°
2026-05-01 08:23 50.40277 18.49352 11338 ft 329 kts 250°
2026-05-01 08:23 50.39814 18.45846 11496 ft 333 kts 277°
2026-05-01 08:23 50.40250 18.42270 11745 ft 338 kts 289°
2026-05-01 08:24 50.40637 18.38542 11960 ft 357 kts 278°
2026-05-01 08:24 50.40614 18.34566 12211 ft 371 kts 270°
2026-05-01 08:24 50.40377 18.30509 12702 ft 375 kts 268°
2026-05-01 08:24 50.40097 18.26434 13196 ft 377 kts 268°
2026-05-01 08:25 50.39855 18.22326 13683 ft 379 kts 269°
2026-05-01 08:25 50.39671 18.18193 14168 ft 381 kts 270°
2026-05-01 08:25 50.39521 18.14030 14638 ft 384 kts 270°
2026-05-01 08:25 50.39368 18.09843 15107 ft 386 kts 270°
2026-05-01 08:26 50.39200 18.05604 15428 ft 394 kts 272°
2026-05-01 08:26 50.39013 18.01256 15629 ft 405 kts 271°
2026-05-01 08:26 50.38808 17.96839 16052 ft 408 kts 271°
2026-05-01 08:26 50.38598 17.92394 16497 ft 410 kts 271°
2026-05-01 08:27 50.38392 17.87928 16926 ft 412 kts 271°
2026-05-01 08:27 50.38191 17.83433 17356 ft 414 kts 271°
2026-05-01 08:27 50.37991 17.78919 17779 ft 416 kts 271°
2026-05-01 08:27 50.37788 17.74385 18188 ft 419 kts 271°
2026-05-01 08:28 50.37577 17.69823 18580 ft 421 kts 271°
2026-05-01 08:28 50.37362 17.65237 18964 ft 423 kts 271°
2026-05-01 08:28 50.37144 17.60624 19341 ft 426 kts 271°
2026-05-01 08:28 50.36925 17.55988 19715 ft 428 kts 271°
2026-05-01 08:29 50.36703 17.51323 20067 ft 431 kts 270°
2026-05-01 08:29 50.36477 17.46635 20417 ft 433 kts 270°
2026-05-01 08:29 50.36247 17.41921 20766 ft 435 kts 270°
2026-05-01 08:29 50.36014 17.37184 21106 ft 438 kts 270°
2026-05-01 08:30 50.35778 17.32400 21309 ft 444 kts 272°
2026-05-01 08:30 50.35539 17.27535 21442 ft 452 kts 272°
2026-05-01 08:30 50.35293 17.22606 21702 ft 456 kts 271°
2026-05-01 08:30 50.35038 17.17639 22024 ft 458 kts 271°
2026-05-01 08:31 50.34779 17.12652 22343 ft 460 kts 271°
2026-05-01 08:31 50.34519 17.07650 22663 ft 462 kts 271°
2026-05-01 08:31 50.34258 17.02628 22973 ft 464 kts 271°
2026-05-01 08:31 50.33995 16.97582 23274 ft 466 kts 271°
2026-05-01 08:32 50.33729 16.92516 23564 ft 468 kts 271°
2026-05-01 08:32 50.33457 16.87435 23850 ft 470 kts 271°
2026-05-01 08:32 50.33180 16.82330 24134 ft 472 kts 271°
2026-05-01 08:32 50.32902 16.77210 24413 ft 473 kts 271°
2026-05-01 08:33 50.32621 16.72065 24692 ft 475 kts 271°
2026-05-01 08:33 50.32338 16.66905 24964 ft 477 kts 271°
2026-05-01 08:33 50.32050 16.61728 25230 ft 478 kts 270°
2026-05-01 08:33 50.31759 16.56534 25486 ft 480 kts 270°
2026-05-01 08:34 50.31463 16.51324 25741 ft 482 kts 270°
2026-05-01 08:34 50.31165 16.46095 25988 ft 483 kts 270°
2026-05-01 08:34 50.30864 16.40852 26233 ft 485 kts 270°
2026-05-01 08:34 50.30561 16.35592 26462 ft 487 kts 270°
2026-05-01 08:35 50.30255 16.30314 26693 ft 488 kts 270°
2026-05-01 08:35 50.29943 16.25019 26920 ft 490 kts 270°
2026-05-01 08:35 50.29628 16.19711 27138 ft 492 kts 271°
2026-05-01 08:35 50.29309 16.14362 27223 ft 497 kts 271°
2026-05-01 08:36 50.28986 16.08972 27391 ft 499 kts 270°
2026-05-01 08:36 50.28657 16.03562 27610 ft 500 kts 270°
2026-05-01 08:36 50.28323 15.98139 27821 ft 502 kts 270°
2026-05-01 08:36 50.27988 15.92700 28032 ft 503 kts 270°
2026-05-01 08:37 50.27650 15.87252 28242 ft 505 kts 270°
2026-05-01 08:37 50.27308 15.81782 28457 ft 506 kts 270°
2026-05-01 08:37 50.26962 15.76316 28663 ft 507 kts 270°
2026-05-01 08:37 50.26618 15.70902 28874 ft 507 kts 270°
2026-05-01 08:38 50.26268 15.65417 29083 ft 508 kts 270°
2026-05-01 08:38 50.25915 15.59920 29271 ft 509 kts 270°
2026-05-01 08:38 50.25558 15.54417 29461 ft 510 kts 270°
2026-05-01 08:38 50.25191 15.48826 29653 ft 510 kts 270°
2026-05-01 08:39 50.24827 15.43325 29942 ft 508 kts 269°
2026-05-01 08:39 50.24462 15.37840 30185 ft 507 kts 269°
2026-05-01 08:39 50.24096 15.32363 30409 ft 506 kts 269°
2026-05-01 08:39 50.23729 15.26909 30683 ft 504 kts 269°
2026-05-01 08:40 50.22988 15.16030 31142 ft 503 kts 269°
2026-05-01 08:40 50.22614 15.10602 31347 ft 502 kts 269°
2026-05-01 08:40 50.22236 15.05187 31557 ft 501 kts 269°
2026-05-01 08:41 50.21858 14.99783 31770 ft 500 kts 269°
2026-05-01 08:41 50.21480 14.94388 31948 ft 500 kts 269°
2026-05-01 08:41 50.21102 14.89000 32202 ft 497 kts 270°
2026-05-01 08:41 50.20726 14.83741 32626 ft 490 kts 270°
2026-05-01 08:42 50.20343 14.78404 32901 ft 488 kts 270°
2026-05-01 08:42 50.19971 14.73192 32913 ft 492 kts 270°
2026-05-01 08:42 50.19585 14.67804 33022 ft 492 kts 269°
2026-05-01 08:42 50.19203 14.62594 33291 ft 489 kts 269°
2026-05-01 08:43 50.18420 14.52036 33530 ft 490 kts 269°
2026-05-01 08:43 50.18028 14.46756 33671 ft 490 kts 269°
2026-05-01 08:43 50.17634 14.41482 33765 ft 490 kts 269°
2026-05-01 08:44 50.17237 14.36200 33895 ft 490 kts 269°
2026-05-01 08:44 50.16835 14.30922 34026 ft 490 kts 269°
2026-05-01 08:44 50.16028 14.20370 34248 ft 490 kts 269°
2026-05-01 08:45 50.15625 14.15122 34363 ft 490 kts 269°
2026-05-01 08:45 50.15217 14.09860 34471 ft 489 kts 269°
2026-05-01 08:45 50.14392 13.99347 34473 ft 488 kts 269°
2026-05-01 08:46 50.13559 13.88842 34478 ft 488 kts 269°
2026-05-01 08:46 50.12711 13.78339 34480 ft 488 kts 269°
2026-05-01 08:47 50.12000 13.67861 34470 ft 482 kts 275°
2026-05-01 08:47 50.12007 13.57491 34453 ft 476 kts 278°
2026-05-01 08:48 50.12119 13.47192 34443 ft 475 kts 276°
2026-05-01 08:48 50.12081 13.36900 34436 ft 475 kts 275°
2026-05-01 08:49 50.12029 13.26600 34432 ft 475 kts 276°
2026-05-01 08:49 50.12017 13.16294 34431 ft 476 kts 276°
2026-05-01 08:50 50.11981 13.05973 34485 ft 476 kts 275°
2026-05-01 08:50 50.11924 12.95662 34510 ft 476 kts 275°
2026-05-01 08:51 50.11863 12.85380 34515 ft 473 kts 275°
2026-05-01 08:51 50.11801 12.75163 34507 ft 470 kts 275°
2026-05-01 08:52 50.11725 12.65008 34463 ft 468 kts 274°
2026-05-01 08:52 50.11636 12.54883 34423 ft 466 kts 274°
2026-05-01 08:53 50.11543 12.44797 34426 ft 466 kts 274°
2026-05-01 08:53 50.11445 12.34758 34427 ft 467 kts 274°
2026-05-01 08:54 50.11337 12.24614 34424 ft 470 kts 274°
2026-05-01 08:54 50.11213 12.14403 34425 ft 472 kts 274°
2026-05-01 08:55 50.11084 12.04166 34478 ft 473 kts 274°
2026-05-01 08:55 50.10945 11.93937 34510 ft 473 kts 273°
2026-05-01 08:56 50.10796 11.83693 34511 ft 472 kts 273°
2026-05-01 08:56 50.10640 11.73484 34507 ft 471 kts 273°
2026-05-01 08:57 50.10474 11.63291 34486 ft 470 kts 273°
2026-05-01 08:57 50.10302 11.53123 34483 ft 469 kts 273°
2026-05-01 08:58 50.10119 11.42966 34454 ft 469 kts 272°
2026-05-01 08:58 50.09929 11.32841 34462 ft 467 kts 272°
2026-05-01 08:59 50.09731 11.22737 34434 ft 467 kts 272°
2026-05-01 08:59 50.09520 11.12653 34456 ft 465 kts 272°
2026-05-01 09:00 50.09303 11.02667 34454 ft 464 kts 272°
2026-05-01 09:00 50.09084 10.92630 34452 ft 463 kts 272°
2026-05-01 09:01 50.08852 10.82606 34463 ft 462 kts 271°
2026-05-01 09:01 50.08651 10.74302 34483 ft 461 kts 271°
2026-05-01 09:02 50.08404 10.64327 34446 ft 461 kts 271°
2026-05-01 09:02 50.08150 10.54357 34405 ft 461 kts 271°
2026-05-01 09:03 50.07888 10.44393 34398 ft 461 kts 271°
2026-05-01 09:03 50.07616 10.34427 34402 ft 461 kts 271°
2026-05-01 09:04 50.07342 10.24465 34420 ft 460 kts 272°
2026-05-01 09:04 50.07259 10.14513 34421 ft 460 kts 273°
2026-05-01 09:05 50.07214 10.04564 34431 ft 460 kts 273°
2026-05-01 09:05 50.07140 9.94616 34442 ft 460 kts 272°
2026-05-01 09:06 50.07051 9.84670 34455 ft 460 kts 272°
2026-05-01 09:06 50.06966 9.74722 34445 ft 460 kts 272°
2026-05-01 09:07 50.06867 9.64781 34471 ft 459 kts 272°
2026-05-01 09:07 50.06757 9.54842 34455 ft 459 kts 272°
2026-05-01 09:08 50.06642 9.44912 34477 ft 458 kts 272°
2026-05-01 09:08 50.06568 9.34994 34435 ft 459 kts 272°
2026-05-01 09:09 50.06489 9.25065 34426 ft 458 kts 272°
2026-05-01 09:09 50.06380 9.15223 34410 ft 458 kts 272°
2026-05-01 09:10 50.06268 9.05308 34398 ft 458 kts 271°
2026-05-01 09:10 50.06156 8.95393 34397 ft 458 kts 271°
2026-05-01 09:11 50.06028 8.85488 34396 ft 458 kts 270°
2026-05-01 09:11 50.05898 8.75582 34439 ft 456 kts 270°
2026-05-01 09:12 50.05754 8.65737 34486 ft 454 kts 270°
2026-05-01 09:12 50.05602 8.55877 34480 ft 451 kts 270°
2026-05-01 09:13 50.05446 8.46215 34457 ft 449 kts 270°
2026-05-01 09:13 50.05286 8.36534 34409 ft 446 kts 270°
2026-05-01 09:14 50.05113 8.26891 34392 ft 445 kts 270°
2026-05-01 09:14 50.04934 8.17258 34386 ft 446 kts 270°
2026-05-01 09:15 50.04747 8.07578 34378 ft 449 kts 270°
2026-05-01 09:15 50.04591 7.97838 34364 ft 452 kts 270°
2026-05-01 09:16 50.04470 7.88051 34375 ft 453 kts 270°
2026-05-01 09:17 50.04224 7.73354 34439 ft 453 kts 270°
2026-05-01 09:17 50.03971 7.58673 34430 ft 452 kts 270°
2026-05-01 09:18 50.03697 7.44028 34371 ft 451 kts 270°
2026-05-01 09:19 50.03406 7.29391 34333 ft 451 kts 269°
2026-05-01 09:20 50.02996 7.14760 34326 ft 453 kts 263°
2026-05-01 09:20 50.01306 7.05349 34355 ft 453 kts 251°
2026-05-01 09:21 49.99135 6.96141 34336 ft 454 kts 250°
2026-05-01 09:21 49.96023 6.82256 34384 ft 454 kts 251°
2026-05-01 09:22 49.91867 6.63788 34396 ft 452 kts 250°
2026-05-01 09:23 49.88740 6.49989 34369 ft 452 kts 250°
2026-05-01 09:24 49.85589 6.36233 34340 ft 451 kts 250°
2026-05-01 09:25 49.81379 6.17935 34307 ft 451 kts 250°
2026-05-01 09:26 49.78194 6.04247 34302 ft 451 kts 249°
2026-05-01 09:26 49.75002 5.90573 34326 ft 450 kts 249°
2026-05-01 09:27 49.71815 5.76908 34319 ft 451 kts 250°
2026-05-01 09:28 49.69711 5.67783 34354 ft 450 kts 249°
2026-05-01 09:28 49.67595 5.58749 34336 ft 451 kts 249°
2026-05-01 09:29 49.64395 5.45115 34330 ft 451 kts 249°
2026-05-01 09:30 49.61283 5.31423 34321 ft 451 kts 250°
2026-05-01 09:30 49.58545 5.17552 34298 ft 452 kts 255°
2026-05-01 09:31 49.57123 5.08117 34298 ft 452 kts 256°
2026-05-01 09:32 49.54999 4.93964 34308 ft 452 kts 255°
2026-05-01 09:32 49.53543 4.84546 34498 ft 452 kts 255°
2026-05-01 09:32 49.52819 4.79841 34629 ft 452 kts 255°
2026-05-01 09:33 49.52095 4.75139 34756 ft 451 kts 255°
2026-05-01 09:33 49.51371 4.70443 34884 ft 451 kts 255°
2026-05-01 09:33 49.49913 4.61071 35142 ft 450 kts 254°
2026-05-01 09:34 49.49180 4.56396 35270 ft 449 kts 254°
2026-05-01 09:34 49.46973 4.42347 35297 ft 451 kts 254°
2026-05-01 09:35 49.44747 4.28304 35299 ft 451 kts 254°
2026-05-01 09:36 49.43255 4.18951 35299 ft 451 kts 254°
2026-05-01 09:36 49.41767 4.09672 35299 ft 450 kts 254°
2026-05-01 09:37 49.40259 4.00339 35297 ft 450 kts 253°
2026-05-01 09:37 49.37984 3.86342 35267 ft 451 kts 253°
2026-05-01 09:38 49.35689 3.72342 35244 ft 451 kts 253°
2026-05-01 09:39 49.33380 3.58360 35237 ft 451 kts 253°
2026-05-01 09:39 49.31830 3.49039 35236 ft 451 kts 252°
2026-05-01 09:40 49.29487 3.35055 35239 ft 452 kts 252°
2026-05-01 09:41 49.27913 3.25736 35243 ft 452 kts 252°
2026-05-01 09:41 49.25542 3.11760 35236 ft 452 kts 252°
2026-05-01 09:42 49.23949 3.02448 35224 ft 452 kts 252°
2026-05-01 09:43 49.20795 2.84112 35231 ft 452 kts 252°
2026-05-01 09:43 49.19178 2.74816 35222 ft 452 kts 251°
2026-05-01 09:44 49.16854 2.61550 35217 ft 453 kts 251°
2026-05-01 09:45 49.15229 2.52293 35224 ft 452 kts 251°
2026-05-01 09:45 49.12860 2.38407 35221 ft 455 kts 256°
2026-05-01 09:46 49.11922 2.28834 35219 ft 457 kts 259°
2026-05-01 09:46 49.11094 2.19227 35256 ft 456 kts 258°
2026-05-01 09:47 49.10189 2.09651 35240 ft 456 kts 258°
2026-05-01 09:47 49.08686 2.00341 35224 ft 448 kts 243°
2026-05-01 09:48 49.06103 1.91708 35215 ft 447 kts 240°
2026-05-01 09:48 49.03413 1.83152 35220 ft 448 kts 241°
2026-05-01 09:49 49.00825 1.74499 35225 ft 449 kts 242°
2026-05-01 09:49 48.98676 1.67312 35221 ft 449 kts 241°
2026-05-01 09:50 48.96020 1.58637 35227 ft 449 kts 241°
2026-05-01 09:50 48.93400 1.50077 35213 ft 450 kts 241°
2026-05-01 09:51 48.90767 1.41457 35220 ft 450 kts 241°
2026-05-01 09:51 48.88117 1.32849 35214 ft 450 kts 241°
2026-05-01 09:52 48.85460 1.24240 35218 ft 450 kts 241°
2026-05-01 09:52 48.82797 1.15645 35230 ft 450 kts 241°
2026-05-01 09:53 48.80129 1.07054 35218 ft 450 kts 241°
2026-05-01 09:53 48.77448 0.98471 35222 ft 450 kts 241°
2026-05-01 09:54 48.74757 0.89896 35219 ft 450 kts 240°
2026-05-01 09:54 48.71616 0.81743 35213 ft 448 kts 235°
2026-05-01 09:55 48.68308 0.73732 35211 ft 449 kts 235°
2026-05-01 09:55 48.65031 0.65687 35208 ft 450 kts 236°
2026-05-01 09:56 48.61768 0.57610 35210 ft 450 kts 236°
2026-05-01 09:56 48.58477 0.49554 35211 ft 451 kts 236°
2026-05-01 09:57 48.55169 0.41497 35211 ft 452 kts 236°
2026-05-01 09:57 48.51854 0.33436 35211 ft 452 kts 236°
2026-05-01 09:58 48.48529 0.25369 35210 ft 454 kts 236°
2026-05-01 09:58 48.45188 0.17294 35207 ft 455 kts 236°
2026-05-01 09:59 48.41837 0.09214 35227 ft 455 kts 236°
2026-05-01 09:59 48.38479 0.01139 35214 ft 456 kts 236°
2026-05-01 10:00 48.34990 -0.06808 35244 ft 454 kts 233°
2026-05-01 10:00 48.31254 -0.14391 35266 ft 445 kts 232°
2026-05-01 10:01 48.27569 -0.21750 35261 ft 440 kts 233°
2026-05-01 10:01 48.23905 -0.29100 35255 ft 440 kts 232°
2026-05-01 10:02 48.20179 -0.36374 35251 ft 440 kts 232°
2026-05-01 10:02 48.16444 -0.43627 35250 ft 440 kts 232°
2026-05-01 10:03 48.12730 -0.50898 35252 ft 440 kts 232°
2026-05-01 10:03 48.09001 -0.58154 35249 ft 440 kts 232°
2026-05-01 10:04 48.05265 -0.65387 35255 ft 440 kts 232°
2026-05-01 10:04 48.01553 -0.72570 35255 ft 440 kts 232°
2026-05-01 10:05 47.97787 -0.79836 35265 ft 439 kts 232°
2026-05-01 10:05 47.94067 -0.86979 35272 ft 439 kts 232°
2026-05-01 10:06 47.90331 -0.94161 35249 ft 439 kts 232°
2026-05-01 10:06 47.86579 -1.01331 35220 ft 439 kts 232°
2026-05-01 10:07 47.82824 -1.08491 35191 ft 439 kts 232°
2026-05-01 10:07 47.79078 -1.15644 35188 ft 438 kts 232°
2026-05-01 10:08 47.73440 -1.26343 35188 ft 439 kts 232°
2026-05-01 10:09 47.69665 -1.33473 35188 ft 440 kts 232°
2026-05-01 10:09 47.65889 -1.40611 35215 ft 440 kts 232°
2026-05-01 10:10 47.62101 -1.47728 35260 ft 439 kts 232°
2026-05-01 10:10 47.56151 -1.58073 35281 ft 440 kts 228°
2026-05-01 10:11 47.52039 -1.64791 35277 ft 440 kts 228°
2026-05-01 10:11 47.47951 -1.71517 35267 ft 440 kts 228°
2026-05-01 10:12 47.43855 -1.78232 35229 ft 440 kts 228°
2026-05-01 10:13 47.37704 -1.88271 35190 ft 439 kts 228°
2026-05-01 10:13 47.33266 -1.94409 35186 ft 438 kts 214°
2026-05-01 10:14 47.25428 -2.01345 35192 ft 439 kts 210°
2026-05-01 10:14 47.20188 -2.05947 35203 ft 439 kts 212°
2026-05-01 10:15 47.14991 -2.10653 35262 ft 438 kts 212°
2026-05-01 10:15 47.09783 -2.15280 35276 ft 437 kts 211°
2026-05-01 10:16 47.04597 -2.19863 35280 ft 434 kts 211°
2026-05-01 10:17 46.96895 -2.26681 35240 ft 429 kts 211°
2026-05-01 10:17 46.89284 -2.33390 35196 ft 427 kts 212°
2026-05-01 10:18 46.84862 -2.39089 35194 ft 426 kts 233°
2026-05-01 10:18 46.83278 -2.42741 35207 ft 427 kts 239°
2026-05-01 10:19 46.80438 -2.50381 35190 ft 430 kts 240°
2026-05-01 10:19 46.77496 -2.57993 35197 ft 432 kts 239°
2026-05-01 10:20 46.72920 -2.69349 35249 ft 433 kts 239°
2026-05-01 10:20 46.69912 -2.76955 35282 ft 433 kts 239°
2026-05-01 10:21 46.65384 -2.88291 35274 ft 430 kts 239°
2026-05-01 10:22 46.60880 -2.99514 35222 ft 427 kts 238°
2026-05-01 10:23 46.56200 -3.10462 35182 ft 423 kts 229°
2026-05-01 10:23 46.50113 -3.19691 35186 ft 422 kts 224°
2026-05-01 10:24 46.41949 -3.31928 35184 ft 425 kts 225°
2026-05-01 10:25 46.33725 -3.44223 35268 ft 424 kts 225°
2026-05-01 10:26 46.29620 -3.50351 35271 ft 423 kts 225°
2026-05-01 10:27 46.21447 -3.62478 35235 ft 419 kts 225°
2026-05-01 10:28 46.15359 -3.71492 35175 ft 417 kts 225°
2026-05-01 10:28 46.09281 -3.80455 35169 ft 417 kts 225°
2026-05-01 10:29 46.03192 -3.89404 35170 ft 418 kts 225°
2026-05-01 10:30 45.95029 -4.01348 35184 ft 419 kts 225°
2026-05-01 10:31 45.86849 -4.13269 35255 ft 419 kts 224°
2026-05-01 10:32 45.80730 -4.22167 35251 ft 419 kts 224°
2026-05-01 10:33 45.72534 -4.34003 35192 ft 418 kts 224°
2026-05-01 10:34 45.66394 -4.42859 35159 ft 418 kts 224°
2026-05-01 10:34 45.62294 -4.48751 35151 ft 418 kts 225°
2026-05-01 10:35 45.56132 -4.57583 35164 ft 419 kts 225°
2026-05-01 10:35 45.52071 -4.63379 35172 ft 419 kts 225°
2026-05-01 10:36 45.45892 -4.72176 35174 ft 418 kts 225°
2026-05-01 10:37 45.41774 -4.78031 35190 ft 418 kts 225°
2026-05-01 10:37 45.36299 -4.85791 35221 ft 417 kts 225°
2026-05-01 10:38 45.32185 -4.91609 35177 ft 417 kts 225°
2026-05-01 10:38 45.28070 -4.97432 35146 ft 418 kts 225°
2026-05-01 10:39 45.23945 -5.03226 35169 ft 416 kts 225°
2026-05-01 10:39 45.19832 -5.09004 35145 ft 416 kts 225°
2026-05-01 10:40 45.15714 -5.14778 35136 ft 416 kts 225°
2026-05-01 10:40 45.11592 -5.20538 35139 ft 417 kts 224°
2026-05-01 10:41 45.07469 -5.26296 35192 ft 416 kts 225°
2026-05-01 10:42 45.01290 -5.34896 35224 ft 416 kts 224°
2026-05-01 10:42 44.97162 -5.40621 35222 ft 416 kts 224°
2026-05-01 10:43 44.93029 -5.46334 35227 ft 415 kts 225°
2026-05-01 10:43 44.88910 -5.52035 35218 ft 414 kts 224°
2026-05-01 10:44 44.84798 -5.57708 35180 ft 413 kts 224°
2026-05-01 10:44 44.80717 -5.63329 35136 ft 413 kts 225°
2026-05-01 10:45 44.76609 -5.68974 35141 ft 412 kts 224°
2026-05-01 10:45 44.72499 -5.74600 35139 ft 413 kts 224°
2026-05-01 10:46 44.68383 -5.80230 35143 ft 413 kts 225°
2026-05-01 10:46 44.64155 -5.85717 35158 ft 414 kts 221°
2026-05-01 10:47 44.59730 -5.90904 35193 ft 414 kts 220°
2026-05-01 10:47 44.55301 -5.96073 35217 ft 414 kts 221°
2026-05-01 10:48 44.50885 -6.01272 35230 ft 415 kts 220°
2026-05-01 10:48 44.46463 -6.06445 35219 ft 413 kts 220°
2026-05-01 10:49 44.42068 -6.11573 35220 ft 410 kts 220°
2026-05-01 10:49 44.37704 -6.16660 35180 ft 407 kts 220°
2026-05-01 10:50 44.33370 -6.21703 35135 ft 405 kts 220°
2026-05-01 10:50 44.29046 -6.26719 35128 ft 404 kts 220°
2026-05-01 10:51 44.24708 -6.31744 35168 ft 408 kts 220°
2026-05-01 10:51 44.20315 -6.36827 35179 ft 412 kts 220°
2026-05-01 10:52 44.15902 -6.41922 35178 ft 411 kts 220°
2026-05-01 10:52 44.11494 -6.46996 35181 ft 411 kts 220°
2026-05-01 10:53 44.07083 -6.52065 35177 ft 411 kts 220°
2026-05-01 10:53 44.02673 -6.57127 35181 ft 411 kts 220°
2026-05-01 10:54 43.98270 -6.62160 35214 ft 410 kts 220°
2026-05-01 10:54 43.93875 -6.67188 35173 ft 409 kts 220°
2026-05-01 10:55 43.89478 -6.72200 35129 ft 409 kts 220°
2026-05-01 10:55 43.85082 -6.77197 35125 ft 409 kts 220°
2026-05-01 10:56 43.80687 -6.82198 35133 ft 409 kts 220°
2026-05-01 10:56 43.76310 -6.87158 35148 ft 409 kts 220°
2026-05-01 10:57 43.71903 -6.92138 35207 ft 409 kts 220°
2026-05-01 10:57 43.67503 -6.97105 35220 ft 408 kts 220°
2026-05-01 10:58 43.63107 -7.02060 35208 ft 408 kts 219°
2026-05-01 10:58 43.58719 -7.06996 35213 ft 406 kts 219°
2026-05-01 10:59 43.54342 -7.11910 35171 ft 406 kts 219°
2026-05-01 10:59 43.49966 -7.16812 35134 ft 405 kts 219°
2026-05-01 11:00 43.45595 -7.21695 35129 ft 404 kts 219°
2026-05-01 11:00 43.41230 -7.26564 35131 ft 404 kts 219°
2026-05-01 11:01 43.36865 -7.31430 35135 ft 404 kts 219°
2026-05-01 11:01 43.32491 -7.36292 35155 ft 404 kts 219°
2026-05-01 11:02 43.28116 -7.41144 35177 ft 404 kts 219°
2026-05-01 11:02 43.23743 -7.45986 35186 ft 404 kts 219°
2026-05-01 11:03 43.19366 -7.50826 35189 ft 404 kts 219°
2026-05-01 11:03 43.14989 -7.55654 35181 ft 404 kts 219°
2026-05-01 11:04 43.10609 -7.60475 35146 ft 404 kts 219°
2026-05-01 11:04 43.06221 -7.65302 35133 ft 405 kts 219°
2026-05-01 11:05 43.01830 -7.70118 35129 ft 405 kts 219°
2026-05-01 11:05 42.97430 -7.74933 35136 ft 405 kts 219°
2026-05-01 11:06 42.93061 -7.79712 35130 ft 405 kts 219°
2026-05-01 11:06 42.88651 -7.84521 35130 ft 406 kts 219°
2026-05-01 11:07 42.82032 -7.91721 35146 ft 406 kts 219°
2026-05-01 11:07 42.77654 -7.96476 35131 ft 407 kts 219°
2026-05-01 11:08 42.73227 -8.01270 35133 ft 407 kts 218°
2026-05-01 11:09 42.66595 -8.08441 35214 ft 405 kts 218°
2026-05-01 11:09 42.62186 -8.13197 35218 ft 404 kts 218°
2026-05-01 11:10 42.55601 -8.20281 35161 ft 402 kts 218°
2026-05-01 11:10 42.51221 -8.24982 35127 ft 401 kts 218°
2026-05-01 11:11 42.46847 -8.29671 35128 ft 401 kts 218°
2026-05-01 11:11 42.42461 -8.34363 35129 ft 402 kts 218°
2026-05-01 11:12 42.38053 -8.39067 35128 ft 404 kts 218°
2026-05-01 11:12 42.33630 -8.43785 35128 ft 406 kts 218°
2026-05-01 11:13 42.29186 -8.48513 35164 ft 407 kts 218°
2026-05-01 11:13 42.24728 -8.53240 35221 ft 407 kts 218°
2026-05-01 11:14 42.20287 -8.57947 35213 ft 405 kts 218°
2026-05-01 11:14 42.15868 -8.62623 35198 ft 403 kts 218°
2026-05-01 11:15 42.11463 -8.67270 35155 ft 401 kts 218°
2026-05-01 11:15 42.07075 -8.71895 35131 ft 400 kts 218°
2026-05-01 11:16 42.02694 -8.76511 35130 ft 400 kts 218°
2026-05-01 11:16 41.98328 -8.81094 35128 ft 401 kts 218°
2026-05-01 11:17 41.93924 -8.85710 35134 ft 402 kts 218°
2026-05-01 11:17 41.89498 -8.90342 35126 ft 404 kts 218°
2026-05-01 11:18 41.85103 -8.95081 35141 ft 406 kts 220°
2026-05-01 11:18 41.80777 -8.99945 35200 ft 406 kts 220°
2026-05-01 11:19 41.76452 -9.04798 35218 ft 405 kts 220°
2026-05-01 11:19 41.72135 -9.09606 35213 ft 403 kts 220°
2026-05-01 11:20 41.67846 -9.14384 35194 ft 400 kts 220°
2026-05-01 11:20 41.63575 -9.19137 35149 ft 399 kts 220°
2026-05-01 11:21 41.59314 -9.23866 35132 ft 398 kts 220°
2026-05-01 11:21 41.55055 -9.28590 35126 ft 398 kts 219°
2026-05-01 11:22 41.50791 -9.33306 35132 ft 399 kts 219°
2026-05-01 11:22 41.46510 -9.38033 35127 ft 400 kts 219°
2026-05-01 11:23 41.42239 -9.42741 35135 ft 402 kts 220°
2026-05-01 11:23 41.37902 -9.47513 35193 ft 402 kts 220°
2026-05-01 11:24 41.33619 -9.52220 35213 ft 402 kts 219°
2026-05-01 11:25 41.27161 -9.59300 35214 ft 400 kts 220°
2026-05-01 11:25 41.20717 -9.66343 35167 ft 400 kts 219°
2026-05-01 11:26 41.14274 -9.73365 35139 ft 400 kts 220°
2026-05-01 11:27 41.10699 -9.77253 35140 ft 400 kts 220°
2026-05-01 11:27 41.06360 -9.81962 35140 ft 401 kts 220°
2026-05-01 11:28 41.02065 -9.86625 35165 ft 402 kts 220°
2026-05-01 11:28 40.97739 -9.91313 35220 ft 402 kts 220°
2026-05-01 11:29 40.91242 -9.98327 35217 ft 402 kts 220°
2026-05-01 11:30 40.84746 -10.05333 35239 ft 400 kts 220°
2026-05-01 11:30 40.80441 -10.09957 35230 ft 398 kts 220°
2026-05-01 11:31 40.76161 -10.14551 35196 ft 396 kts 220°
2026-05-01 11:31 40.71899 -10.19117 35151 ft 394 kts 220°
2026-05-01 11:32 40.67651 -10.23660 35141 ft 393 kts 220°
2026-05-01 11:32 40.63401 -10.28200 35144 ft 393 kts 220°
2026-05-01 11:33 40.59143 -10.32736 35144 ft 394 kts 220°
2026-05-01 11:33 40.54869 -10.37282 35145 ft 396 kts 220°
2026-05-01 11:34 40.50579 -10.41844 35140 ft 398 kts 220°
2026-05-01 11:34 40.46267 -10.46419 35144 ft 399 kts 220°
2026-05-01 11:35 40.41933 -10.51004 35168 ft 400 kts 220°
2026-05-01 11:35 40.37593 -10.55591 35226 ft 400 kts 220°
2026-05-01 11:36 40.33256 -10.60168 35231 ft 400 kts 220°
2026-05-01 11:36 40.28926 -10.64727 35229 ft 398 kts 220°
2026-05-01 11:37 40.24643 -10.69233 35196 ft 397 kts 220°
2026-05-01 11:37 40.20343 -10.73748 35154 ft 396 kts 220°
2026-05-01 11:38 40.16045 -10.78250 35140 ft 396 kts 220°
2026-05-01 11:38 40.11750 -10.82745 35141 ft 396 kts 220°
2026-05-01 11:39 40.07449 -10.87240 35151 ft 396 kts 220°
2026-05-01 11:39 40.03148 -10.91723 35206 ft 395 kts 220°
2026-05-01 11:40 39.98854 -10.96194 35247 ft 395 kts 221°
2026-05-01 11:40 39.94566 -11.00653 35247 ft 394 kts 221°
2026-05-01 11:41 39.90295 -11.05082 35243 ft 391 kts 221°
2026-05-01 11:41 39.86051 -11.09477 35229 ft 388 kts 221°
2026-05-01 11:42 39.81834 -11.13839 35185 ft 386 kts 221°
2026-05-01 11:42 39.77631 -11.18179 35143 ft 385 kts 221°
2026-05-01 11:43 39.73445 -11.22496 35139 ft 384 kts 221°
2026-05-01 11:43 39.69257 -11.26806 35144 ft 384 kts 221°
2026-05-01 11:44 39.62958 -11.33278 35141 ft 386 kts 221°
2026-05-01 11:44 39.58742 -11.37601 35153 ft 387 kts 221°
2026-05-01 11:45 39.54522 -11.41922 35211 ft 386 kts 221°
2026-05-01 11:45 39.50303 -11.46233 35218 ft 386 kts 221°
2026-05-01 11:46 39.46086 -11.50538 35216 ft 385 kts 221°
2026-05-01 11:46 39.41876 -11.54825 35212 ft 384 kts 221°
2026-05-01 11:47 39.37671 -11.59088 35185 ft 384 kts 220°
2026-05-01 11:47 39.33218 -11.62942 35142 ft 386 kts 217°
2026-05-01 11:48 39.28687 -11.66669 35128 ft 386 kts 217°
2026-05-01 11:48 39.24202 -11.70396 35126 ft 386 kts 217°
2026-05-01 11:49 39.19685 -11.74156 35133 ft 387 kts 217°
2026-05-01 11:49 39.15160 -11.77906 35131 ft 387 kts 217°
2026-05-01 11:50 39.10630 -11.81658 35162 ft 387 kts 217°
2026-05-01 11:50 39.06107 -11.85399 35189 ft 387 kts 217°
2026-05-01 11:51 39.01577 -11.89137 35206 ft 386 kts 218°
2026-05-01 11:51 38.97054 -11.92865 35196 ft 386 kts 218°
2026-05-01 11:52 38.92527 -11.96587 35195 ft 386 kts 218°
2026-05-01 11:52 38.88005 -12.00309 35171 ft 386 kts 218°
2026-05-01 11:53 38.83477 -12.04026 35166 ft 386 kts 218°
2026-05-01 11:53 38.78962 -12.07717 35219 ft 384 kts 218°
2026-05-01 11:54 38.74466 -12.11397 35207 ft 383 kts 218°
2026-05-01 11:54 38.69979 -12.15065 35167 ft 382 kts 218°
2026-05-01 11:55 38.65494 -12.18722 35125 ft 382 kts 218°
2026-05-01 11:55 38.61010 -12.22374 35128 ft 382 kts 218°
2026-05-01 11:56 38.56522 -12.26023 35124 ft 383 kts 218°
2026-05-01 11:56 38.52020 -12.29674 35134 ft 383 kts 218°
2026-05-01 11:57 38.47523 -12.33322 35182 ft 383 kts 218°
2026-05-01 11:57 38.43026 -12.36967 35178 ft 383 kts 218°
2026-05-01 11:58 38.38518 -12.40605 35193 ft 383 kts 218°
2026-05-01 11:59 38.31754 -12.46062 35148 ft 384 kts 218°
2026-05-01 11:59 38.27243 -12.49693 35171 ft 383 kts 218°
2026-05-01 12:00 38.20507 -12.55107 35132 ft 384 kts 218°
2026-05-01 12:01 38.13743 -12.60527 35146 ft 382 kts 218°
2026-05-01 12:01 38.09243 -12.64135 35120 ft 383 kts 218°
2026-05-01 12:02 38.04737 -12.67735 35125 ft 383 kts 218°
2026-05-01 12:02 38.00227 -12.71335 35122 ft 383 kts 218°
2026-05-01 12:03 37.95718 -12.74930 35122 ft 383 kts 218°
2026-05-01 12:03 37.91199 -12.78523 35124 ft 384 kts 218°
2026-05-01 12:04 37.86669 -12.82121 35124 ft 385 kts 218°
2026-05-01 12:04 37.82123 -12.85726 35136 ft 386 kts 218°
2026-05-01 12:05 37.77581 -12.89330 35193 ft 385 kts 218°
2026-05-01 12:05 37.70760 -12.94720 35196 ft 386 kts 218°
2026-05-01 12:06 37.66210 -12.98307 35200 ft 386 kts 218°
2026-05-01 12:06 37.61657 -13.01895 35195 ft 386 kts 218°
2026-05-01 12:07 37.57107 -13.05479 35183 ft 386 kts 218°
2026-05-01 12:07 37.52553 -13.09058 35147 ft 386 kts 218°
2026-05-01 12:08 37.47990 -13.12639 35126 ft 386 kts 218°
2026-05-01 12:08 37.43424 -13.16215 35121 ft 387 kts 218°
2026-05-01 12:09 37.38859 -13.19789 35125 ft 387 kts 218°
2026-05-01 12:09 37.34286 -13.23363 35139 ft 387 kts 218°
2026-05-01 12:10 37.27423 -13.28717 35125 ft 388 kts 218°
2026-05-01 12:11 37.20577 -13.34036 35174 ft 387 kts 218°
2026-05-01 12:11 37.15999 -13.37595 35153 ft 388 kts 218°
2026-05-01 12:12 37.11413 -13.41156 35146 ft 388 kts 218°
2026-05-01 12:12 37.06826 -13.44708 35118 ft 388 kts 218°
2026-05-01 12:13 37.02228 -13.48262 35126 ft 388 kts 217°
2026-05-01 12:13 36.97645 -13.51802 35179 ft 387 kts 217°
2026-05-01 12:14 36.93073 -13.55332 35176 ft 386 kts 217°
2026-05-01 12:14 36.88498 -13.58852 35132 ft 386 kts 217°
2026-05-01 12:15 36.84690 -13.61776 35114 ft 386 kts 217°
2026-05-01 12:15 36.80114 -13.65297 35108 ft 387 kts 217°
2026-05-01 12:16 36.75528 -13.68810 35113 ft 387 kts 217°
2026-05-01 12:16 36.70931 -13.72333 35110 ft 388 kts 217°
2026-05-01 12:17 36.66323 -13.75857 35122 ft 389 kts 217°
2026-05-01 12:17 36.61713 -13.79374 35165 ft 388 kts 217°
2026-05-01 12:18 36.57099 -13.82893 35134 ft 390 kts 217°
2026-05-01 12:18 36.52474 -13.86418 35115 ft 390 kts 217°
2026-05-01 12:19 36.47841 -13.89941 35117 ft 390 kts 217°
2026-05-01 12:19 36.43210 -13.93457 35121 ft 390 kts 217°
2026-05-01 12:20 36.38579 -13.96973 35114 ft 390 kts 217°
2026-05-01 12:20 36.33943 -14.00486 35110 ft 391 kts 217°
2026-05-01 12:21 36.29297 -14.03996 35130 ft 391 kts 217°
2026-05-01 12:21 36.24688 -14.07477 35185 ft 390 kts 217°
2026-05-01 12:22 36.20053 -14.10974 35170 ft 390 kts 217°
2026-05-01 12:22 36.15411 -14.14468 35128 ft 391 kts 217°
2026-05-01 12:23 36.10765 -14.17961 35112 ft 391 kts 217°
2026-05-01 12:23 36.06119 -14.21450 35112 ft 391 kts 217°
2026-05-01 12:24 36.01468 -14.24936 35112 ft 391 kts 217°
2026-05-01 12:24 35.96813 -14.28422 35116 ft 391 kts 217°
2026-05-01 12:25 35.89829 -14.33645 35136 ft 391 kts 217°
2026-05-01 12:26 35.85172 -14.37120 35133 ft 391 kts 217°
2026-05-01 12:26 35.78186 -14.42323 35141 ft 391 kts 217°
2026-05-01 12:27 35.71203 -14.47514 35117 ft 391 kts 217°
2026-05-01 12:28 35.64218 -14.52697 35133 ft 391 kts 217°
2026-05-01 12:29 35.57223 -14.57874 35112 ft 391 kts 217°
2026-05-01 12:29 35.50217 -14.63051 35121 ft 392 kts 217°
2026-05-01 12:30 35.43209 -14.68218 35127 ft 392 kts 217°
2026-05-01 12:31 35.38531 -14.71659 35111 ft 392 kts 217°
2026-05-01 12:31 35.33850 -14.75104 35114 ft 393 kts 217°
2026-05-01 12:32 35.29164 -14.78544 35121 ft 393 kts 217°
2026-05-01 12:32 35.22132 -14.83696 35125 ft 393 kts 217°
2026-05-01 12:33 35.17440 -14.87130 35121 ft 393 kts 217°
2026-05-01 12:33 35.12743 -14.90558 35114 ft 393 kts 217°
2026-05-01 12:34 35.08075 -14.93965 35120 ft 394 kts 217°
2026-05-01 12:34 35.03369 -14.97392 35131 ft 394 kts 217°
2026-05-01 12:35 34.98662 -15.00816 35131 ft 394 kts 217°
2026-05-01 12:35 34.93956 -15.04235 35128 ft 394 kts 216°
2026-05-01 12:36 34.89249 -15.07652 35127 ft 394 kts 216°
2026-05-01 12:36 34.84539 -15.11062 35128 ft 394 kts 216°
2026-05-01 12:37 34.79832 -15.14471 35126 ft 394 kts 216°
2026-05-01 12:37 34.75113 -15.17879 35131 ft 394 kts 216°
2026-05-01 12:38 34.70397 -15.21282 35162 ft 394 kts 216°
2026-05-01 12:38 34.65680 -15.24681 35168 ft 394 kts 216°
2026-05-01 12:39 34.60963 -15.28075 35165 ft 394 kts 216°
2026-05-01 12:39 34.56246 -15.31467 35158 ft 394 kts 216°
2026-05-01 12:40 34.51527 -15.34856 35146 ft 394 kts 216°
2026-05-01 12:40 34.46832 -15.38221 35128 ft 395 kts 216°
2026-05-01 12:41 34.42104 -15.41604 35132 ft 395 kts 216°
2026-05-01 12:41 34.37373 -15.44988 35124 ft 395 kts 216°
2026-05-01 12:42 34.32637 -15.48367 35171 ft 395 kts 216°
2026-05-01 12:42 34.27911 -15.51738 35186 ft 395 kts 216°
2026-05-01 12:43 34.23176 -15.55108 35189 ft 395 kts 216°
2026-05-01 12:43 34.18445 -15.58474 35186 ft 395 kts 216°
2026-05-01 12:44 34.13710 -15.61838 35149 ft 395 kts 216°
2026-05-01 12:45 34.04222 -15.68562 35127 ft 395 kts 216°
2026-05-01 12:45 33.99503 -15.71897 34648 ft 390 kts 216°
2026-05-01 12:46 33.97156 -15.73557 33855 ft 393 kts 216°
2026-05-01 12:46 33.94772 -15.75247 32831 ft 402 kts 216°
2026-05-01 12:46 33.92345 -15.76964 31987 ft 406 kts 216°
2026-05-01 12:46 33.89916 -15.78674 31450 ft 404 kts 215°
2026-05-01 12:47 33.87488 -15.80379 30883 ft 403 kts 215°
2026-05-01 12:47 33.85071 -15.82080 30242 ft 403 kts 215°
2026-05-01 12:47 33.82648 -15.83788 29552 ft 404 kts 215°
2026-05-01 12:47 33.80218 -15.85499 28890 ft 404 kts 215°
2026-05-01 12:48 33.77827 -15.87179 28290 ft 403 kts 215°
2026-05-01 12:48 33.75383 -15.88894 27701 ft 400 kts 215°
2026-05-01 12:48 33.72981 -15.90578 27078 ft 399 kts 215°
2026-05-01 12:48 33.70625 -15.92231 26484 ft 396 kts 215°
2026-05-01 12:49 33.68252 -15.93896 25890 ft 394 kts 215°
2026-05-01 12:49 33.65918 -15.95583 25305 ft 390 kts 217°
2026-05-01 12:49 33.63639 -15.97321 24704 ft 387 kts 217°
2026-05-01 12:49 33.61381 -15.99060 24090 ft 384 kts 217°
2026-05-01 12:50 33.59142 -16.00788 23512 ft 381 kts 217°
2026-05-01 12:50 33.56920 -16.02495 22940 ft 378 kts 217°
2026-05-01 12:50 33.54713 -16.04184 22324 ft 375 kts 217°
2026-05-01 12:50 33.52526 -16.05858 21762 ft 371 kts 217°
2026-05-01 12:51 33.50350 -16.07520 20985 ft 372 kts 217°
2026-05-01 12:51 33.48148 -16.09205 19893 ft 380 kts 216°
2026-05-01 12:51 33.43614 -16.12673 18047 ft 387 kts 216°
2026-05-01 12:52 33.41371 -16.14377 17651 ft 376 kts 216°
2026-05-01 12:52 33.37039 -16.17676 16312 ft 369 kts 216°
2026-05-01 12:52 33.34873 -16.19336 15490 ft 370 kts 216°
2026-05-01 12:53 33.30624 -16.22572 14353 ft 357 kts 215°
2026-05-01 12:53 33.28520 -16.24177 13377 ft 362 kts 214°
2026-05-01 12:53 33.26370 -16.25815 12349 ft 370 kts 214°
2026-05-01 12:54 33.24205 -16.27457 11669 ft 366 kts 214°
2026-05-01 12:54 33.20074 -16.30583 11172 ft 335 kts 214°
2026-05-01 12:54 33.18160 -16.32037 10973 ft 316 kts 214°
2026-05-01 12:55 33.14636 -16.34711 10524 ft 285 kts 215°
2026-05-01 12:55 33.13004 -16.35951 10291 ft 275 kts 213°
2026-05-01 12:55 33.11391 -16.37185 9764 ft 278 kts 213°
2026-05-01 12:56 33.09735 -16.38443 9158 ft 284 kts 213°
2026-05-01 12:56 33.08075 -16.39695 8821 ft 280 kts 213°
2026-05-01 12:56 33.06435 -16.40929 8413 ft 279 kts 213°
2026-05-01 12:56 33.04790 -16.42170 7919 ft 281 kts 213°
2026-05-01 12:57 33.03139 -16.43419 7418 ft 282 kts 213°
2026-05-01 12:57 32.99817 -16.45926 6415 ft 283 kts 213°
2026-05-01 12:57 32.98152 -16.47181 5916 ft 283 kts 213°
2026-05-01 12:58 32.96485 -16.48437 5415 ft 283 kts 213°
2026-05-01 12:58 32.94819 -16.49692 4953 ft 282 kts 213°
2026-05-01 12:58 32.93194 -16.50926 4748 ft 271 kts 214°
2026-05-01 12:59 32.90429 -16.53710 4247 ft 257 kts 223°
2026-05-01 12:59 32.89117 -16.55169 3791 ft 259 kts 223°
2026-05-01 12:59 32.86495 -16.57967 3367 ft 243 kts 222°
2026-05-01 13:00 32.84110 -16.60526 3154 ft 220 kts 224°
2026-05-01 13:00 32.83017 -16.61763 3061 ft 216 kts 225°
2026-05-01 13:01 32.80873 -16.64273 2921 ft 218 kts 223°
2026-05-01 13:01 32.79714 -16.65448 2736 ft 218 kts 219°
2026-05-01 13:01 32.77497 -16.67538 2729 ft 182 kts 220°
2026-05-01 13:02 32.76554 -16.68505 2631 ft 175 kts 222°
2026-05-01 13:07 32.69415 -16.77588 158 ft 0 kts 139°